#timestamp,LO_Frequency,Hit,StdDev 
1627351215.7,286046999.8,N
1627351235.6,286047002.5,N
1627351255.4,286047000.1,N
1627351275.2,286047002.3,N
1627351295.1,286047002.4,N
1627351296.0,286047002.4,N
1627351315.8,286047002.4,N
1627351335.7,286047000.0,N
1627351355.5,286046999.9,N
1627351375.3,286047000.6,N
1627351395.2,286046999.7,N
1627351415.0,286046999.7,N
1627351415.9,286046999.7,N
1627351435.8,286046999.8,N
1627351455.6,286047001.7,N
1627351475.4,286047001.5,N
1627351495.3,286047002.2,N
1627351515.1,286047001.9,N
1627351535.8,286047001.7,N
1627351555.7,286047002.5,N
1627351575.5,286047002.6,N
1627351595.4,286047002.7,N
1627351615.2,286047002.4,N
1627351635.0,286047002.7,N
1627351635.9,286047002.7,N
1627351655.8,286047000.6,N
1627351675.6,286047001.0,N
1627351695.4,286046998.6,N
1627351715.3,286047001.0,N
1627351735.1,286047002.1,N
1627351755.9,286047004.0,Y
1627351775.7,286047002.8,P
1627351795.5,286047002.4,P
1627351815.4,286047002.6,P
1627351835.2,286047002.5,Y
1627351855.0,286046998.5,P
1627351855.9,286046998.5,N
1627351875.8,286046998.3,N
1627351895.6,286046999.3,N
1627351915.5,286046998.6,N
1627351935.3,286047002.8,N
1627351955.1,286047000.1,N
1627351975.9,286047000.6,N
1627351995.7,286047000.6,N
1627352015.5,286046998.9,N
1627352035.4,286046998.3,N
1627352055.2,286046998.3,N
1627352075.1,286046999.4,N
1627352076.0,286046999.4,N
1627352095.8,286046996.5,N
1627352115.6,286046998.7,N
1627352135.5,286046998.9,N
1627352155.3,286046999.3,N
1627352175.1,286046996.6,N
1627352195.9,286046996.9,N
1627352215.7,286046999.3,N
1627352235.6,286046999.0,N
1627352255.4,286046998.8,N
1627352275.2,286046999.4,N
1627352295.1,286046998.2,N
1627352296.0,286046998.2,N
1627352315.8,286046998.5,N
1627352335.6,286046998.3,N
1627352355.5,286047001.0,N
1627352375.3,286046998.4,N
1627352395.2,286046998.5,N
1627352415.9,286046998.6,N
1627352435.7,286046998.7,N
1627352455.6,286046998.6,N
1627352475.4,286046998.1,N
1627352495.2,286046998.1,N
1627352515.1,286046998.6,N
1627352516.0,286046998.6,N
1627352535.8,286047000.2,N
1627352555.7,286047000.0,N
1627352575.5,286047002.7,N
1627352595.3,286047000.0,N
1627352615.2,286046998.5,N
1627352635.0,286046998.3,N
1627352635.9,286046998.3,N
1627352655.8,286046998.3,N
1627352675.6,286046998.5,N
1627352695.4,286046998.6,N
1627352715.3,286046998.1,N
1627352735.1,286047001.0,N
1627352755.8,286047000.6,N
1627352775.7,286047000.4,N
1627352795.5,286046999.7,N
1627352815.4,286047000.9,N
1627352835.2,286047001.0,N
1627352855.0,286046998.6,N
1627352856.0,286046998.6,N
1627352875.8,286046998.2,N
1627352895.6,286046998.5,N
1627352915.5,286047000.7,N
1627352935.3,286047000.9,N
1627352955.1,286047000.9,N
1627352975.9,286046998.2,N
1627352995.7,286046998.4,N
1627353015.6,286046998.6,N
1627353035.4,286046998.3,N
1627353055.2,286046998.3,N
1627353075.1,286046998.2,N
1627353076.0,286046998.2,N
1627353095.8,286046998.3,N
1627353115.7,286046999.4,N
1627353135.5,286046997.1,N
1627353155.3,286046996.7,N
1627353175.2,286046999.3,N
1627353195.0,286046999.4,N
1627353195.9,286046999.4,N
1627353215.8,286046998.9,N
1627353235.6,286046999.6,N
1627353255.4,286046999.6,N
1627353275.3,286046998.7,N
1627353295.1,286046996.8,N
1627353315.8,286046996.7,N
1627353335.7,286046998.6,N
1627353355.5,286046998.2,N
1627353375.4,286046998.4,N
1627353395.2,286046998.3,N
1627353415.0,286046999.0,N
1627353415.9,286046999.0,N
1627353435.8,286046999.0,N
1627353455.6,286047001.2,N
1627353475.5,286046998.7,N
1627353495.3,286046998.3,N
1627353515.1,286047000.8,N
1627353535.9,286046998.6,N
1627353555.7,286046998.1,N
1627353575.5,286046998.8,N
1627353595.4,286046999.1,N
1627353615.2,286046999.4,N
1627353635.1,286046999.5,N
1627353636.0,286046999.5,N
1627353655.8,286046996.7,Y
1627353675.6,286046998.9,P
1627353695.5,286046999.1,P
1627353715.3,286046997.7,P
1627353735.2,286046996.6,Y
1627353755.9,286046998.8,P
1627353775.7,286046999.4,P
1627353795.6,286046998.4,P
1627353815.4,286046998.4,Y
1627353835.2,286047001.0,P
1627353855.1,286046999.7,N
1627353856.0,286046999.7,N
1627353875.8,286046999.9,N
1627353895.7,286047002.8,Y
1627353915.5,286047002.5,P
1627353935.3,286047002.2,N
1627353955.2,286047003.9,P
1627353975.0,286047003.2,N
1627353975.9,286047003.2,N
1627353995.8,286047003.7,N
1627354015.6,286047004.3,Y
1627354035.4,286046998.1,P
1627354055.3,286047000.7,N
1627354075.1,286046998.2,N
1627354095.8,286047000.8,N
1627354115.7,286047000.7,N
1627354135.5,286047001.2,N
1627354155.4,286046998.1,N
1627354175.2,286046998.2,N
1627354195.0,286046998.5,N
1627354195.9,286046998.5,N
1627354215.8,286046998.6,N
1627354235.6,286046999.2,N
1627354255.4,286046998.7,N
1627354275.3,286047001.1,N
1627354295.1,286046999.5,N
1627354315.9,286046997.2,N
1627354335.7,286046996.8,N
1627354355.5,286046999.5,N
1627354375.4,286046998.5,N
1627354395.2,286046998.3,N
1627354415.0,286046998.3,N
1627354415.9,286046998.3,N
1627354435.8,286046998.4,N
1627354455.6,286046998.6,N
1627354475.4,286046998.5,N
1627354495.3,286046998.3,N
1627354515.1,286046998.6,N
1627354535.9,286047000.5,N
1627354555.7,286047000.6,N
1627354575.5,286047000.4,N
1627354595.4,286047000.4,N
1627354615.2,286047000.0,N
1627354635.1,286047000.6,N
1627354636.0,286047000.6,N
1627354655.8,286047000.2,N
1627354675.6,286047000.1,N
1627354695.5,286047000.5,N
1627354715.3,286047001.0,N
1627354735.2,286046998.5,N
1627354755.9,286047000.0,N
1627354775.7,286047000.1,N
1627354795.6,286047000.4,N
